User: anonymous   Login
Location: Alafon
(8.4500°N, 4.2333°E)
Time: 04:27:05
(UTC+00:00)
Language:

deb Explorer IX - Orbit

View from above orbital plane
View from above orbital plane
View from above satellite
View from above satellite

Ground track
Ground track

The orbit data is extracted from the following two-line orbital elements,

1 00085U 61004C   21212.02125645  .00005007  00000-0  10729-2 0  9990
2 00085  38.7670  94.4958 0382552 344.0475  14.8501 14.21980673989249
Epoch (UTC): 31 July 2021 00:30:36
Eccentricity: 0.0382552
inclination: 38.7670°
perigee height: 543 km
apogee height: 1094 km
right ascension of ascending node: 94.4958°
argument of perigee: 344.0475°
revolutions per day: 14.21980673
mean anomaly at epoch: 14.8501°
orbit number at epoch: 98924

The dashed part of the orbit path shows where the satellite is in the earth's shadow,  

DLR